Satellite-Ground Cal/Val Region Overpasses Predictions

Prediction of Satellite NPP Overpassing Cal/Val Region: PacNW

Region Location: (Latitude: 10.00, Longitude: 139.50) to (Latitude: 22.70, Longitude: 165.60).

Table of predicted overpasses for the next 14.0 days since TLE Epoch: 12/29/2018
Interval Starting Time Starting Location Ending Time Ending Location
1 12/30/2018 03:11:24 ( 10.03, 151.85) 12/30/2018 03:14:59 ( 22.66, 148.85)
2 12/30/2018 15:43:17 ( 22.68, 149.08) 12/30/2018 15:46:53 ( 10.00, 146.07)
3 12/31/2018 02:52:22 ( 10.01, 156.61) 12/31/2018 02:55:58 ( 22.69, 153.60)
4 12/31/2018 15:24:16 ( 22.64, 153.83) 12/31/2018 15:27:51 ( 10.02, 150.83)
5 01/01/2019 02:33:20 ( 10.05, 161.36) 01/01/2019 02:36:55 ( 22.67, 158.36)
6 01/01/2019 15:05:13 ( 22.67, 158.59) 01/01/2019 15:08:48 ( 10.05, 155.59)
7 01/02/2019 02:14:57 ( 12.32, 165.60) 01/02/2019 02:17:53 ( 22.65, 163.12)
8 01/02/2019 03:55:48 ( 10.03, 140.75) 01/02/2019 03:57:19 ( 15.38, 139.51)
9 01/02/2019 14:46:11 ( 22.69, 163.36) 01/02/2019 14:49:47 ( 10.01, 160.34)
10 01/03/2019 03:36:46 ( 10.01, 145.51) 01/03/2019 03:40:22 ( 22.69, 142.50)
11 01/03/2019 14:30:08 ( 12.15, 165.59) 01/03/2019 14:30:44 ( 10.03, 165.10)
12 01/03/2019 16:08:39 ( 22.64, 142.73) 01/03/2019 16:12:14 ( 10.03, 139.73)
13 01/04/2019 03:17:44 ( 10.05, 150.26) 01/04/2019 03:21:19 ( 22.67, 147.26)
14 01/04/2019 15:49:37 ( 22.67, 147.49) 01/04/2019 15:53:12 ( 10.05, 144.49)
15 01/05/2019 02:58:42 ( 10.03, 155.02) 01/05/2019 03:02:17 ( 22.65, 152.02)
16 01/05/2019 15:30:34 ( 22.69, 152.25) 01/05/2019 15:34:10 ( 10.01, 149.24)
17 01/06/2019 02:39:39 ( 10.01, 159.78) 01/06/2019 02:43:15 ( 22.69, 156.77)
18 01/06/2019 15:11:33 ( 22.65, 157.00) 01/06/2019 15:15:08 ( 10.03, 154.00)
19 01/07/2019 02:20:38 ( 10.05, 164.53) 01/07/2019 02:24:13 ( 22.67, 161.53)
20 01/07/2019 14:52:30 ( 22.67, 161.77) 01/07/2019 14:56:05 ( 10.05, 158.77)
21 01/08/2019 03:43:05 ( 10.04, 143.92) 01/08/2019 03:46:40 ( 22.66, 140.92)
22 01/08/2019 14:34:33 ( 18.88, 165.59) 01/08/2019 14:37:04 ( 10.01, 163.51)
23 01/08/2019 16:14:58 ( 22.68, 141.15) 01/08/2019 16:16:53 ( 15.94, 139.51)
24 01/09/2019 03:24:03 ( 10.02, 148.68) 01/09/2019 03:27:38 ( 22.64, 145.68)
25 01/09/2019 15:55:56 ( 22.64, 145.90) 01/09/2019 15:59:31 ( 10.02, 142.90)
26 01/10/2019 03:05:00 ( 10.00, 153.44) 01/10/2019 03:08:36 ( 22.68, 150.43)
27 01/10/2019 15:36:54 ( 22.66, 150.66) 01/10/2019 15:40:29 ( 10.04, 147.66)
28 01/11/2019 02:45:59 ( 10.04, 158.19) 01/11/2019 02:49:34 ( 22.67, 155.19)
29 01/11/2019 15:17:52 ( 22.68, 155.42) 01/11/2019 15:21:28 ( 10.00, 152.41)
30 01/12/2019 02:26:56 ( 10.02, 162.95) 01/12/2019 02:30:31 ( 22.65, 159.95)


NCC Satellite Cal/Val Overpasses Prediction Service
